| time (UTC) | temp F | wind direction | speed knots | gust knots | rain 1hr in | rain 24hr in | rain mn in | humidity % | barometer mb |
| 20260505014525 | 74 | 179 | 0.9 | 7.0 | 0.00 | 0.00 | 0.00 | 72 | 1011.6 |
| 20260505013025 | 74 | 259 | 0.9 | 3.5 | 0.00 | 0.00 | 0.00 | 72 | 1011.4 |
| 20260505011525 | 75 | 147 | 0.0 | 7.0 | 0.00 | 0.00 | 0.00 | 71 | 1011.3 |
| 20260505010023 | 75 | 205 | 0.0 | 3.5 | 0.00 | 0.00 | 0.00 | 70 | 1011.4 |
| 20260505004522 | 76 | 121 | 0.0 | 3.5 | 0.00 | 0.00 | 0.00 | 69 | 1011.5 |
| 20260505003022 | 76 | 122 | 0.9 | 6.1 | 0.00 | 0.00 | 0.00 | 69 | 1011.4 |
| 20260505001521 | 77 | 139 | 0.9 | 6.1 | 0.00 | 0.00 | 0.00 | 68 | 1011.4 |
| 20260505000019 | 77 | 118 | 1.7 | 8.7 | 0.00 | 0.00 | 0.00 | 68 | 1011.5 |
| 20260504234518 | 78 | 165 | 0.9 | 6.1 | 0.00 | 0.00 | 0.00 | 67 | 1011.7 |
| 20260504233018 | 78 | 212 | 0.9 | 5.2 | 0.00 | 0.00 | 0.00 | 66 | 1011.7 |
| 20260504231516 | 79 | 146 | 0.9 | 9.6 | 0.00 | 0.00 | 0.00 | 65 | 1011.7 |
| 20260504230015 | 79 | 173 | 1.7 | 7.0 | 0.00 | 0.00 | 0.00 | 64 | 1012.0 |
| 20260504224513 | 79 | 205 | 1.7 | 8.7 | 0.00 | 0.00 | 0.00 | 63 | 1011.9 |
| 20260504223012 | 80 | 135 | 0.9 | 6.1 | 0.00 | 0.00 | 0.00 | 62 | 1012.2 |
| 20260504221516 | 80 | 122 | 1.7 | 6.1 | 0.00 | 0.00 | 0.00 | 61 | 1012.4 |
| 20260504220009 | 80 | 193 | 0.9 | 5.2 | 0.00 | 0.00 | 0.00 | 60 | 1012.5 |
| 20260504214508 | 81 | 247 | 0.9 | 5.2 | 0.00 | 0.00 | 0.00 | 60 | 1012.6 |
| 20260504213008 | 81 | 238 | 0.0 | 6.1 | 0.00 | 0.00 | 0.00 | 60 | 1012.8 |
| 20260504211506 | 82 | 108 | 2.6 | 6.1 | 0.00 | 0.00 | 0.00 | 58 | 1013.1 |
| 20260504210004 | 81 | 125 | 1.7 | 7.0 | 0.00 | 0.00 | 0.00 | 59 | 1013.1 |
| 20260504204502 | 82 | 221 | 0.9 | 6.1 | 0.00 | 0.00 | 0.00 | 59 | 1013.5 |
| 20260504203059 | 81 | 212 | 0.9 | 7.8 | 0.00 | 0.00 | 0.00 | 59 | 1013.7 |
| 20260504201556 | 81 | 123 | 1.7 | 5.2 | 0.00 | 0.00 | 0.00 | 58 | 1014.1 |
| 20260504200057 | 80 | 149 | 1.7 | 6.1 | 0.00 | 0.00 | 0.00 | 59 | 1014.4 |
| 20260504194550 | 80 | 246 | 1.7 | 5.2 | 0.00 | 0.00 | 0.00 | 59 | 1014.6 |
| 20260504193049 | 80 | 59 | 1.7 | 6.1 | 0.00 | 0.00 | 0.00 | 59 | 1014.8 |
| 20260504191555 | 79 | 160 | 1.7 | 7.0 | 0.00 | 0.00 | 0.00 | 59 | 1014.9 |
| 20260504190052 | 80 | 133 | 0.9 | 5.2 | 0.00 | 0.00 | 0.00 | 58 | 1015.3 |
| 20260504184554 | 80 | 283 | 1.7 | 5.2 | 0.00 | 0.00 | 0.00 | 59 | 1015.4 |
| 20260504183049 | 79 | 190 | 0.9 | 6.1 | 0.00 | 0.00 | 0.00 | 59 | 1015.6 |
| 20260504181547 | 79 | 214 | 1.7 | 7.0 | 0.00 | 0.00 | 0.00 | 60 | 1015.7 |
| 20260504180039 | 80 | 172 | 3.5 | 8.7 | 0.00 | 0.00 | 0.00 | 57 | 1016.0 |
| 20260504174535 | 79 | 223 | 0.9 | 5.2 | 0.00 | 0.00 | 0.00 | 60 | 1016.0 |
| 20260504173033 | 78 | 225 | 1.7 | 5.2 | 0.00 | 0.00 | 0.00 | 60 | 1016.3 |
| 20260504171530 | 78 | 114 | 1.7 | 7.8 | 0.00 | 0.00 | 0.00 | 59 | 1016.5 |
| 20260504081523 | 56 | 153 | 0.0 | 0.0 | 0.00 | 0.00 | 0.00 | 84 | 1017.9 |
| 20260504044602 | 59 | 153 | 0.0 | 0.0 | 0.00 | 0.00 | 0.00 | 77 | 1019.8 |
| 20260504043058 | 60 | 153 | 0.0 | 0.0 | 0.00 | 0.00 | 0.00 | 76 | 1019.9 |
| 20260504041554 | 60 | 153 | 0.0 | 0.0 | 0.00 | 0.00 | 0.00 | 75 | 1019.9 |
| 20260504040103 | 61 | 153 | 0.0 | 0.0 | 0.00 | 0.00 | 0.00 | 74 | 1019.9 |
| 20260504034559 | 62 | 153 | 0.0 | 0.0 | 0.00 | 0.00 | 0.00 | 74 | 1019.9 |
| 20260504033125 | 62 | 153 | 0.0 | 0.0 | 0.00 | 0.00 | 0.00 | 73 | 1019.8 |
| 20260504031550 | 63 | 141 | 0.0 | 0.0 | 0.00 | 0.00 | 0.00 | 72 | 1019.9 |
| 20260504030050 | 64 | 165 | 0.0 | 0.0 | 0.00 | 0.00 | 0.00 | 72 | 1019.8 |
| 20260504024550 | 66 | 129 | 0.0 | 0.9 | 0.00 | 0.00 | 0.00 | 69 | 1019.6 |
| 20260504023100 | 65 | 137 | 0.0 | 0.9 | 0.00 | 0.00 | 0.00 | 67 | 1019.5 |
| 20260504021552 | 64 | 103 | 0.0 | 0.9 | 0.00 | 0.00 | 0.00 | 69 | 1019.5 |
| 20260504020056 | 65 | 226 | 0.0 | 0.0 | 0.00 | 0.00 | 0.00 | 69 | 1019.3 |